Terminal Aerodrome Forecast
Issued by NWS

Home | Current Version | Previous Version | Text Only | Print | Product List | Glossary On
Versions: 1 2 3 4 5 6 7 8 9 10 11 12 13 14 15 16 17
000
FTUS46 KLOX 201100
TAFLGB
TAF
KLGB 201128Z 2012/2112 VRB03KT P6SM OVC020
     FM201400 VRB03KT P6SM OVC022
     FM201900 20009KT P6SM SKC
     FM210100 30008KT P6SM SKC
     FM210500 VRB03KT P6SM OVC015=

USA.gov is the U.S. government's official web portal to all federal, state and local government web resources and services.